Weather History for Morrisville, VT

Change the Weather History Date:

Friday, December 7, 2012

  Actual Average Record
Temperature  
Mean Temperature 30 °F 26 °F  
Max Temperature 37 °F 35 °F 66 °F (1998)
Min Temperature 23 °F 17 °F 0 °F (2014)
Degree Days  
Heating Degree Days 35 39  
Month to date heating degree days 219 264  
Since 1 July heating degree days 1913 2092  
Cooling Degree Days 0 0  
Month to date cooling degree days 0 0  
Year to date cooling degree days 408 265  
Moisture  
Dew Point 21 °F    
Average Humidity 63    
Maximum Humidity 81    
Minimum Humidity 44    
Precipitation  
Precipitation 0.00 in 0.10 in 0.36 in (2004)
Month to date precipitation 1.08 0.69  
Year to date precipitation 20.32 34.05  
Sea Level Pressure  
Sea Level Pressure 30.10 in    
Wind  
Wind Speed 3 mph (South)    
Max Wind Speed 9 mph    
Max Gust Speed 15 mph    
Visibility 10 miles    
Events      
T = Trace of Precipitation, MM = Missing Value Source: NWS Daily Summary

Daily Weather History Graph

Daily Weather History Graph

Search for Another Location

Airport:

Trip Planner

Search our weather history database for the weather conditions in past years. The results will help you decide how hot, cold, wet, or windy it might be!

Date:

Astronomy

Dec. 07, 2012 Rise Set
Actual Time 7:13 AM EST 4:10 PM EST
Civil Twilight 6:40 AM EST 4:43 PM EST
Nautical Twilight 6:03 AM EST 5:20 PM EST
Astronomical Twilight 5:28 AM EST 5:55 PM EST
Moon 12:16 AM EST (12/7) 12:18 PM EST (12/7)
Length of Visible Light 10h 03m
Length of Day
8h 56m
Last Quarter, 39% of the Moon is Illuminated
Dec 7
Last Quarter
Dec 13
New
Dec 20
First Quarter
Dec 28
Full
Jan 4
Last Quarter

Hourly Weather History & Observations

Time (EST) Temp. Windchill Dew Point Humidity Pressure Visibility Wind Dir Wind Speed Gust Speed Precip Events Conditions
12:54 AM 25.0 °F 20.7 °F 19.9 °F 81% 30.21 in 10.0 mi SSE 3.5 mph - N/A   Clear
1:54 AM 27.0 °F 18.7 °F 18.0 °F 69% 30.20 in 10.0 mi South 8.1 mph - N/A   Clear
2:54 AM 27.0 °F 23.0 °F 18.0 °F 69% 30.19 in 10.0 mi South 3.5 mph - N/A   Clear
3:54 AM 27.0 °F 20.5 °F 18.0 °F 69% 30.17 in 10.0 mi South 5.8 mph - N/A   Clear
4:54 AM 27.0 °F 23.0 °F 18.0 °F 69% 30.16 in 10.0 mi SSE 3.5 mph - N/A   Clear
5:54 AM 24.1 °F 19.7 °F 18.0 °F 77% 30.15 in 10.0 mi South 3.5 mph - N/A   Clear
6:54 AM 24.1 °F 19.7 °F 18.0 °F 77% 30.14 in 10.0 mi South 3.5 mph - N/A   Clear
7:54 AM 25.0 °F - 19.0 °F 78% 30.13 in 9.0 mi Calm Calm - N/A   Clear
8:54 AM 30.0 °F 26.5 °F 19.9 °F 66% 30.12 in 10.0 mi South 3.5 mph - N/A   Clear
9:54 AM 33.1 °F 26.9 °F 19.0 °F 56% 30.12 in 10.0 mi Variable 6.9 mph - N/A   Clear
10:54 AM 35.1 °F 32.2 °F 18.0 °F 50% 30.09 in 10.0 mi South 3.5 mph - N/A   Partly Cloudy
11:54 AM 36.0 °F - 18.0 °F 48% 30.08 in 10.0 mi Calm Calm - N/A   Clear
12:54 PM 37.0 °F 32.4 °F 18.0 °F 46% 30.05 in 10.0 mi SSW 5.8 mph - N/A   Mostly Cloudy
1:54 PM 36.0 °F 31.1 °F 19.0 °F 50% 30.05 in 10.0 mi South 5.8 mph - N/A   Overcast
2:54 PM 36.0 °F 32.1 °F 21.0 °F 55% 30.04 in 10.0 mi SSW 4.6 mph - N/A   Overcast
3:54 PM 36.0 °F - 21.9 °F 57% 30.05 in 10.0 mi Calm Calm - N/A   Overcast
4:54 PM 35.1 °F - 23.0 °F 61% 30.05 in 10.0 mi Calm Calm - N/A   Overcast
5:54 PM 34.0 °F - 24.1 °F 67% 30.05 in 10.0 mi Calm Calm - N/A   Overcast
6:54 PM 32.0 °F - 23.0 °F 69% 30.06 in 10.0 mi Calm Calm - N/A   Mostly Cloudy
8:54 PM 30.9 °F - 25.0 °F 79% 30.05 in 10.0 mi Calm Calm - N/A   Mostly Cloudy
9:54 PM 32.0 °F - 25.0 °F 75% 30.05 in 10.0 mi Calm Calm - N/A   Overcast
10:54 PM 32.0 °F - 26.1 °F 79% 30.06 in 10.0 mi Calm Calm - N/A   Overcast
11:54 PM 30.9 °F - 25.0 °F 79% 30.05 in 10.0 mi Calm Calm - N/A   Mostly Cloudy